Retour au catalogue

COSMOS 374 DEB

ActifLEO
NORAD 4621·DEBRIS·🇷🇺 Russia

Lancé Oct 23, 1970 depuis Baikonur Cosmodrome

Loading…

Prochains Passages (prochaines 24 heures)

TLE

FraisSource: Space-Track

Époque: Sep 14, 2026, 10:57 UTC

1 04621U 70089H   26257.45666381  .00000578  00000-0  24965-3 0  9997
2 04621  62.9252 278.4892 0625910 220.4057 134.8864 13.59867302693673

Suivez COSMOS 374 DEB en temps réel avec AllMySat

Download on the App Store